DW6283 Weather Reports


time (UTC)temp
C
wind
direction
speed
KPH
gust
KPH
rain 1hr
cm
rain 24hr
cm
rain mn
cm
humidity
%
barometer
mb
20260503031536 23 115 0.0 8.0 0.00 0.00 0.00 53 1006.4
20260503030035 24 110 0.0 12.9 0.00 0.00 0.00 51 1006.2
20260503024524 25 96 0.0 11.3 0.00 0.00 0.00 49 1006.1
20260503023016 26 73 0.0 6.4 0.00 0.00 0.00 46 1006.1
20260503021603 27 86 1.6 11.3 0.00 0.00 0.00 43 1005.9
20260503020101 27 78 0.0 6.4 0.00 0.00 0.00 41 1005.9
20260503014543 29 89 0.0 8.0 0.00 0.00 0.00 36 1005.9
20260503013040 30 62 0.0 0.0 0.00 0.00 0.00 26 1005.9
20260503011523 30 62 0.0 1.6 0.00 0.00 0.00 26 1005.9
20260503010022 30 62 0.0 1.6 0.00 0.00 0.00 25 1005.9
20260503004503 31 61 0.0 1.6 0.00 0.00 0.00 25 1005.9
20260503003009 31 61 0.0 3.2 0.00 0.00 0.00 23 1006.0
20260503001600 31 61 0.0 3.2 0.00 0.00 0.00 24 1006.2
20260503000043 32 61 0.0 1.6 0.00 0.00 0.00 22 1006.3
20260502234523 32 61 0.0 3.2 0.00 0.00 0.00 23 1006.4
20260502233022 32 61 0.0 0.0 0.00 0.00 0.00 22 1006.5
20260502231505 33 61 0.0 3.2 0.00 0.00 0.00 20 1006.7
20260502230100 33 57 0.0 3.2 0.00 0.00 0.00 20 1006.9
20260502224540 33 59 0.0 4.8 0.00 0.00 0.00 22 1007.3
20260502223038 34 55 0.0 3.2 0.00 0.00 0.00 19 1007.7
20260502221519 34 77 0.0 1.6 0.00 0.00 0.00 20 1008.0
20260502220022 34 78 0.0 1.6 0.00 0.00 0.00 21 1008.2
20260502214557 33 91 0.0 3.2 0.00 0.00 0.00 21 1008.4
20260502213106 33 71 0.0 0.0 0.00 0.00 0.00 23 1008.6
20260502211535 33 71 0.0 1.6 0.00 0.00 0.00 23 1008.9
20260502210034 33 260 0.0 1.6 0.00 0.00 0.00 23 1009.1
20260502204512 33 260 0.0 3.2 0.00 0.00 0.00 25 1009.3
20260502203009 33 260 0.0 4.8 0.00 0.00 0.00 28 1009.5
20260502201551 33 260 0.0 1.6 0.00 0.00 0.00 30 1009.6
20260502200107 32 261 0.0 4.8 0.00 0.00 0.00 31 1009.8
20260502194525 32 261 0.0 4.8 0.00 0.00 0.00 34 1009.9
20260502193024 31 292 0.0 1.6 0.00 0.00 0.00 36 1010.1
20260502191502 31 227 0.0 3.2 0.00 0.00 0.00 39 1010.2
20260502190058 30 5 0.0 4.8 0.00 0.00 0.00 43 1010.3
20260502184537 29 254 0.0 6.4 0.00 0.00 0.00 44 1010.6
20260502183037 28 304 0.0 8.0 0.00 0.00 0.00 45 1010.7
20260502181519 28 348 0.0 8.0 0.00 0.00 0.00 46 1010.8
20260502163100 23 218 1.6 4.8 0.00 0.00 0.00 56 1011.1
20260502161555 23 93 0.0 1.6 0.00 0.00 0.00 57 1011.2
20260502151506 19 93 0.0 0.0 0.00 0.00 0.00 73 1010.9
20260502150106 18 93 0.0 0.0 0.00 0.00 0.00 78 1010.8
20260502123005 13 93 0.0 0.0 0.00 0.00 0.00 87 1009.1
20260502121504 13 93 0.0 0.0 0.00 0.00 0.00 87 1009.1
20260502114548 13 93 0.0 0.0 0.00 0.00 0.00 86 1009.0
20260502113026 13 93 0.0 1.6 0.00 0.00 0.00 86 1009.0
20260502111523 14 93 0.0 0.0 0.00 0.00 0.00 86 1009.1
20260502110005 14 93 0.0 0.0 0.00 0.00 0.00 86 1009.3
20260502104510 14 93 0.0 0.0 0.00 0.00 0.00 86 1009.2
20260502103108 15 93 0.0 0.0 0.00 0.00 0.00 86 1009.3
20260502101550 15 93 0.0 0.0 0.00 0.00 0.00 86 1009.5
20260502091502 16 93 0.0 1.6 0.00 0.00 0.00 83 1009.9
20260502080105 17 93 0.0 3.2 0.00 0.00 0.00 77 1010.2
20260502070025 18 111 0.0 3.2 0.00 0.00 0.00 69 1010.0
20260502064525 19 113 0.0 3.2 0.00 0.00 0.00 67 1009.9
20260502063006 20 91 0.0 4.8 0.00 0.00 0.00 65 1009.8
20260502061506 20 91 0.0 3.2 0.00 0.00 0.00 63 1009.8
20260502060048 20 91 0.0 3.2 0.00 0.00 0.00 61 1009.8
20260502054557 20 91 0.0 3.2 0.00 0.00 0.00 58 1009.8
20260502053032 20 91 0.0 3.2 0.00 0.00 0.00 56 1009.8
20260502051529 21 91 0.0 1.6 0.00 0.00 0.00 55 1009.8
20260502050012 21 91 0.0 3.2 0.00 0.00 0.00 53 1009.6
20260502044510 21 92 0.0 3.2 0.00 0.00 0.00 52 1009.6
20260502043104 22 91 0.0 4.8 0.00 0.00 0.00 50 1009.5
20260502041553 22 92 0.0 3.2 0.00 0.00 0.00 49 1009.4
20260502040035 23 92 0.0 1.6 0.00 0.00 0.00 47 1009.3
20260502034535 23 92 0.0 4.8 0.00 0.00 0.00 45 1008.9
20260502033017 24 92 0.0 3.2 0.00 0.00 0.00 43 1008.7